STARLINK-32853, 62818

Orbit data source: Space-Track

STARLINK-32853, 62818 is a payload satellite owned by SpaceX/Seattle (US) in LEO that was launched on Fri, 24 Jan 2025 UTC via an FALCON 9 launch vehicle from the Air Force Western Test Range (AFWTR). Payload-class satellites include a variety of spacecraft equipped with specific instruments for various scientific and technological missions. These include communications satellites like Starlink; space stations such as the ISS; scientific satellites like the Hubble; Earth observation satellites from companies like Planet Labs, Umbra, and HawkEye 360; GPS; miniature CubeSats for education and research; and military/defense satellites.

Loading next visibility...
Identifier
62818, 2025-018N
Orbit
LEO
Country
Flag of USUS
Related business
Manufacturer
SpaceX/Seattle
Mission
Operational Commercial Communications
Bus & Motor
STARLINK V2M, Unknown motor
Mass
730 kg wet, ~700 kg dry
Launch date (UTC)
2025-01-24 (1 year ago)
Launch vehicle
FALCON 9
Launch site
Air Force Western Test Range (AFWTR)
Object type
Payload
Rocket body
Debris
Shape & HBR
Box + 2 Pan, 17.7 m
Radar Cross Section
33.884 m², Large (>1 m²)

Expand to show TLE details & history
Last TLE update: 6 days ago

TLE from 6 days ago
0 STARLINK-32853
1 62818U 25018N   26154.91480692  .00016786  00000-0  57800-3 0  9999
2 62818  53.1611 268.8177 0001089  75.7619 284.3502 15.30175688 76388
Epoch: 2026-06-03T21:57Z
TLE epoch observation values (Epoch: 2026-06-03T21:57:19.317Z)
Latitude
-0.0001°
Longitude
47.12056°
Altitude
476.003 km
Speed
7.629 km/s
True Right ascension
17h 55m 16s
True Declination
0° 00' 00"
Sunlit
Object was in full shadow at epoch
Visualization orbit readout
Latitude
Unknown
Longitude
Unknown
Altitude
Unknown
Speed
Unknown
Apparent Right ascension
Unknown
Apparent Declination
Unknown
Sunlit
N/A
Visualization observer readout
Local Sidereal Time
13:09:57
Azimuth
Unknown
Elevation
Unknown
Doppler factor
Unknown
Orbital elements
Apogee altitude
476.29 km
Perigee altitude
474.798 km
Semi-major axis
6,853.681 km
Eccentricity
0.00011
Inclination
53.1611°
RAAN
268.8177°
Arg. of periapsis
75.7619°
True anomaly
284.33811°
Mean anomaly
284.3502°
Eccentric anomaly
284.34416°
Mean motion
3.82523 °/min
Orbital period
94.11 mins
BSTAR
0.000578
Loading maneuver chart data...
Computing Atmospheric mass density...
Loading historical data...
Loading historical data...
Loading historical data...
Loading historical data...
Loading historical data...
Loading historical data...
Loading historical data...

Documentation

Showing up to 5 results
|